This is the latest recevied weather packets stored in our database for station/object AC4AG. If no packets are shown the sender has not sent any weather packets the latest 10 day(s).
| Time | Temp. | Humidity | Pressure | Rain* | Wind** | Luminosity | Snow |
|---|---|---|---|---|---|---|---|
| 1777505980 | 16.67° C | 74% | 1011.2 hPa | 0 mm | - | 73 W/m² | - |
| 1777505676 | 16.67° C | 76% | 1011.3 hPa | 0 mm | - | 61 W/m² | - |
| 1777505373 | 16.67° C | 76% | 1011.4 hPa | 0 mm | - | 36 W/m² | - |
| 1777505070 | 16.67° C | 76% | 1011.3 hPa | 0 mm | - | 64 W/m² | - |
| 1777504767 | 17.22° C | 74% | 1011.4 hPa | 0 mm | - | 88 W/m² | - |
| 1777504464 | 17.22° C | 74% | 1011.5 hPa | 0 mm | - | 101 W/m² | - |
| 1777504160 | 17.78° C | 73% | 1011.5 hPa | 0 mm | - | 56 W/m² | - |
| 1777503855 | 17.78° C | 72% | 1011.5 hPa | 0 mm | - | 142 W/m² | - |
| 1777503552 | 17.78° C | 74% | 1011.7 hPa | 0 mm | - | 156 W/m² | - |
| 1777503248 | 17.78° C | 76% | 1011.5 hPa | 0 mm | - | 193 W/m² | - |
| 1777502945 | 17.78° C | 75% | 1011.5 hPa | 0 mm | - | 98 W/m² | - |
| 1777502643 | 17.78° C | 78% | 1011.6 hPa | 0 mm | - | 210 W/m² | - |
| 1777502339 | 17.78° C | 78% | 1011.6 hPa | 0 mm | - | 223 W/m² | - |
| 1777502036 | 17.22° C | 79% | 1011.6 hPa | 0 mm | - | 283 W/m² | - |
| 1777501732 | 17.22° C | 82% | 1011.5 hPa | 0 mm | - | 107 W/m² | - |
| 1777501430 | 16.67° C | 84% | 1011.6 hPa | 0 mm | - | 170 W/m² | - |
| 1777501127 | 16.67° C | 84% | 1011.5 hPa | 0 mm | - | 132 W/m² | - |
| 1777500826 | 16.67° C | 84% | 1011.4 hPa | 0 mm | - | 147 W/m² | - |
| 1777500523 | 16.67° C | 86% | 1011.5 hPa | 0 mm | - | 132 W/m² | - |
| 1777500219 | 16.67° C | 86% | 1011.6 hPa | 0 mm | - | 159 W/m² | - |
| 1777499915 | 16.67° C | 87% | 1011.5 hPa | 0 mm | - | 110 W/m² | - |
| 1777499612 | 17.22° C | 86% | 1011.5 hPa | 0 mm | - | 128 W/m² | - |
| 1777499309 | 17.22° C | 85% | 1011.5 hPa | 0 mm | - | 370 W/m² | - |
| 1777499007 | 16.67° C | 89% | 1011.5 hPa | 0 mm | - | 263 W/m² | - |
| 1777498703 | 16.67° C | 89% | 1011.4 hPa | 0 mm | - | 192 W/m² | - |
* Rain latest hour (hover to see other rain measurements)
** Current wind speed in m/s (hover to see current wind gust speed)